Header for Extended Forecast Station List Page

Search by: ID | Name | Date | Parm | Value | Avg | % Avg
Sort by: ID | Name | Date | Parm | Value | Avg | % Avg

Enter search or view all records.

Click on id for station plot
#IDNameDateParmValueAvg% Avg
0SATI1ST MARIES-NEAR SANTA12-06-2021DISCHARGE (KAF)298236
1MONO3NF JOHN DAY-AT MONUMENT12-06-2021DISCHARGE (KAF)10927040
2SERO3JOHN DAY-AT SERVICE CK12-06-2021DISCHARGE (KAF)19142245
3NACW1NACHES-NEAR NACHES12-06-2021DISCHARGE (KAF)8719046
4MAGI1BIG WOOD-MAGIC DAM12-06-2021INFLOW (KAF)203753
5STRM8ST. REGIS-NEAR ST. REGIS12-06-2021DISCHARGE (KAF)335659
6RIDI1WILLOW CREEK-RIRIE DAM12-06-2021INFLOW (KAF)91561
7HALI1BIG WOOD-AT HAILEY12-06-2021DISCHARGE (KAF)244061
8TRYO3GRANDE RONDE-TROY12-06-2021DISCHARGE (KAF)34956862
9WRMO3MALHEUR-WARM SPRINGS DAM12-06-2021INFLOW (KAF)314865
10HOTI1BRUNEAU-NEAR HOT SPRINGS12-06-2021DISCHARGE (KAF)263966
11CLFW1NACHES-NEAR CLIFFDEL12-06-2021DISCHARGE (KAF)9313668
12SPDI1CLEARWATER-AT SPALDING12-06-2021DISCHARGE (KAF)1449210369
13BUDW1BUMPING-BUMPING LAKE DAM12-06-2021INFLOW (KAF)284070
14IPDI1HENRYS FORK-ISLAND PARK DAM12-06-2021INFLOW (KAF)7310570
15DEDI1DEADWOOD-NEAR LOWMAN12-06-2021INFLOW (KAF)142070
16KIOW1YAKIMA-AT KIONA12-06-2021DISCHARGE (KAF)61185971
17MACI1BIG LOST-MACKAY RESERVOIR NEAR MACKAY12-06-2021INFLOW (KAF)273871
18SPOW1SPOKANE-AT SPOKANE12-06-2021DISCHARGE (KAF)1034143672
19CSDI1NF PAYETTE-CASCADE DAM12-06-2021INFLOW (KAF)8411772
20LGDW1SNAKE-LOWER GRANITE DAM12-06-2021INFLOW (KAF)5875813672
21LGSW1SNAKE-LITTLE GOOSE DAM12-06-2021INFLOW (KAF)5875817972
22TCHW1WALLA WALLA-NEAR TOUCHET12-06-2021DISCHARGE (KAF)14920872
23RILW1TIETON-RIMROCK LAKE NEAR RIMROCK12-06-2021INFLOW (KAF)577873
24PIHI1PORTNEUF-AT POCATELLO12-06-2021DISCHARGE (KAF)425773
25ORFI1CLEARWATER-AT OROFINO12-06-2021DISCHARGE (KAF)825112573
26LMNW1SNAKE-LOWER MONUMENTAL DAM12-06-2021INFLOW (KAF)6156833374
27IHDW1SNAKE-ICE HARBOR DAM12-06-2021INFLOW (KAF)6156836374
28PARW1YAKIMA-NEAR PARKER12-06-2021DISCHARGE (KAF)44759475
29ARAI1SF BOISE-ANDERSON RANCH DAM12-06-2021INFLOW (KAF)749776
30ANAW1SNAKE-NEAR ANATONE12-06-2021DISCHARGE (KAF)4427585776
31LLKW1SPOKANE-AT LONGLAKE12-06-2021INFLOW (KAF)1326171977
32JLKW4SNAKE-JACKSON LAKE AT DAM12-06-2021INFLOW (KAF)9111877
33JKSW4SNAKE-NEAR JACKSON12-06-2021DISCHARGE (KAF)24331777
34PLDI1SF SNAKE-PALISADES DAM12-06-2021INFLOW (KAF)45859477
35TEAI1TETON-NEAR ST. ANTHONY12-06-2021DISCHARGE (KAF)779978
36BERO3MALHEUR-AGENCY VALLEY DAM12-06-2021INFLOW (KAF)202678
37ALPW4SNAKE-NEAR ALPINE12-06-2021DISCHARGE (KAF)30137780
38PRTI1PRIEST-NEAR PRIEST RIVER12-06-2021DISCHARGE (KAF)20625481
39ANTI1HENRYS FORK-AT ST. ANTHONY12-06-2021DISCHARGE (KAF)31038281
40LWRI1LITTLE WOOD-LITTLE WOOD DAM12-06-2021INFLOW (KAF)141781
41COEI1COEUR D ALENE-COEUR D ALENE LAKE12-06-2021INFLOW (KAF)1095134382
42HWRI1BIG LOST-AT HOWELL RANCH NEAR CHILLY12-06-2021DISCHARGE (KAF)151882
43BONM8BLACKFOOT-NEAR BONNER12-06-2021DISCHARGE (KAF)12414983
44WHBI1SALMON-AT WHITEBIRD12-06-2021DISCHARGE (KAF)937112483
45UMTW1YAKIMA-AT UMTANUM12-06-2021DISCHARGE (KAF)30436184
46REXI1HENRYS FORK-AT REXBURG12-06-2021DISCHARGE (KAF)36743784
47SNAI1SNAKE-AT BLACKFOOT12-06-2021DISCHARGE (KAF)50560084
48CLUW1CLE ELUM-CLE ELUM LAKE12-06-2021INFLOW (KAF)10111985
49CHEI1FALL RIVER-NEAR CHESTER12-06-2021DISCHARGE (KAF)9611385
50SHYI1SNAKE-NEAR SHELLEY12-06-2021DISCHARGE (KAF)58368785
51ABOM8CLARK FORK-ABOVE MISSOULA12-06-2021DISCHARGE (KAF)30134986
52SRGM8CLARK FORK-AT ST REGIS12-06-2021DISCHARGE (KAF)67478486
53EASW1YAKIMA-AT EASTON12-06-2021DISCHARGE (KAF)738486
54BFTI1SNAKE-NEAR BLACKFOOT12-06-2021DISCHARGE (KAF)50558786
55EMMI1PAYETTE-NEAR EMMETT12-06-2021DISCHARGE (KAF)34439587
56PDTO3UMATILLA-AT PENDLETON12-06-2021DISCHARGE (KAF)13415587
57MODO3DESCHUTES-AT MOODY NR BIGGS12-06-2021DISCHARGE (KAF)1259143488
58SIFI1SNAKE-AB EAGLE ROCK NR IDAHO FALLS12-06-2021DISCHARGE (KAF)60768489
59DRMM8CLARK FORK-NR DRUMMOND12-06-2021DISCHARGE (KAF)11712891
60LAUW1KETTLE-AT LAURIER12-06-2021DISCHARGE (KAF)16818491
61SWAI1SNAKE-BELOW SWAN FALLS12-06-2021DISCHARGE (KAF)1712187891
62GIBO3UMATILLA-NEAR GIBBON12-06-2021DISCHARGE (KAF)556091
63BELM8CLARK FORK-BELOW MISSOULA12-06-2021DISCHARGE (KAF)53758092
64BONO3COLUMBIA-BONNEVILLE DAM12-06-2021INFLOW (KAF)362173931592
65WEII1SNAKE-AT WEISER12-06-2021DISCHARGE (KAF)2827303393
66BRNI1SNAKE-BROWNLEE DAM12-06-2021INFLOW (KAF)3054328793
67JDAO3COLUMBIA-JOHN DAY DAM12-06-2021INFLOW (KAF)347973683594
68TDAO3COLUMBIA-THE DALLES DAM12-06-2021INFLOW (KAF)352343750694
69AFRI1SNAKE-AMERICAN FALLS RESERVOIR12-06-2021INFLOW (KAF)1146121295
70LUCI1BOISE-LUCKY PEAK DAM12-06-2021INFLOW (KAF)21322595
71MCDW1COLUMBIA-MCNARY DAM12-06-2021INFLOW (KAF)332873509495
72KEDW1YAKIMA-KEECHELUS LAKE12-06-2021INFLOW (KAF)525397
73WSRI1WEISER-NEAR WEISER12-06-2021DISCHARGE (KAF)20921697
74UMAO3UMATILLA-NEAR UMATILLA12-06-2021DISCHARGE (KAF)14314797
75UNDW1WHITE SALMON-NEAR UNDERWOOD12-06-2021DISCHARGE (KAF)28729498
76ALFW1PEND OREILLE-ALBENI FALLS DAM12-06-2021INFLOW (KAF)4106414399
77HEII1SNAKE-NEAR HEISE12-06-2021DISCHARGE (KAF)39539999
78DWRI1NF CLEARWATER-DWORSHAK DAM12-06-2021INFLOW (KAF)88089399
79KERM8FLATHEAD-SELI’Š KSANKA QLISPE’ DAM12-06-2021INFLOW (KAF)14481453100
80KADW1KACHESS-KACHESS DAM12-06-2021INFLOW (KAF)5252100
81TNAW1TEANAWAY-BELOW FORKS12-06-2021DISCHARGE (KAF)6565101
82CABI1CLARK FORK-CABINET GORGE DAM12-06-2021INFLOW (KAF)36793622102
83WELW1COLUMBIA-WELLS DAM12-06-2021INFLOW (KAF)2503424522102
84PRWW1COLUMBIA-PRIEST RAPIDS DAM12-06-2021INFLOW (KAF)2626125629102
85RCCM8ROCK CREEK-NEAR CLINTON12-06-2021DISCHARGE (KAF)4847103
86GCDW1COLUMBIA-GRAND COULEE DAM12-06-2021INFLOW (KAF)2232721610103
87CHJW1COLUMBIA-CHIEF JOSEPH DAM12-06-2021INFLOW (KAF)2447823863103
88RRHW1COLUMBIA-ROCKY REACH DAM12-06-2021INFLOW (KAF)2578424937103
89WANW1COLUMBIA-WANAPUM DAM12-06-2021INFLOW (KAF)2624825553103
90HHWM8SF FLATHEAD-HUNGRY HORSE DAM12-06-2021INFLOW (KAF)281271104
91DLGM8CLARK FORK-AT DEER LODGE12-06-2021DISCHARGE (KAF)5452104
92MYKO3MCKAY CREEK-NEAR PILOT ROCK12-06-2021DISCHARGE (KAF)4038104
93PITW1KLICKITAT-NEAR PITT12-06-2021DISCHARGE (KAF)409392104
94NOXM8CLARK FORK-NOXON RAPIDS DAM12-06-2021INFLOW (KAF)33323150106
95CIBW1COLUMBIA-AT INTL BOUNDARY12-06-2021DISCHARGE (KAF)2073819652106
96BITM8BITTERROOT-NEAR MISSOULA12-06-2021DISCHARGE (KAF)236219107
97HODO3HOOD-NEAR TUCKER BRIDGE12-06-2021DISCHARGE (KAF)295252117
98PATW1METHOW-NEAR PATEROS12-06-2021DISCHARGE (KAF)138113122
99PESW1WENATCHEE-AT PESHASTIN12-06-2021DISCHARGE (KAF)435349125
100TONW1OKANOGAN-NEAR TONASKET12-06-2021DISCHARGE (KAF)406322126
101CFMM8FLATHEAD-AT COLUMBIA FALLS12-06-2021DISCHARGE (KAF)1279985130
102LYDM8KOOTENAI-LIBBY DAM12-06-2021INFLOW (KAF)1142843135
103PARI1BOISE-NEAR PARMA12-06-2021DISCHARGE (KAF)279198141
104WGCM8MF FLATHEAD-NEAR WEST GLACIER12-06-2021DISCHARGE (KAF)245171143
105LEOI1KOOTENAI-AT LEONIA12-06-2021DISCHARGE (KAF)32452252144
106ARDW1ENTIAT-NEAR ARDENVOIR12-06-2021DISCHARGE (KAF)4127148
107OWYO3OWYHEE-OWYHEE DAM12-06-2021INFLOW (KAF)257173149
108CHDW1CHELAN-LAKE CHELAN DAM12-06-2021INFLOW (KAF)348211165
109BIGI1BOISE-AT GLENWOOD BRIDGE12-06-2021DISCHARGE (KAF)13466202
110FCFM8NF FLATHEAD-NEAR COLUMBIA FALLS12-06-2021DISCHARGE (KAF)402190212
111BULO3BULLY CREEK-BULLY CREEK DAM12-06-2021INFLOW (KAF)205404
112BFEI1KOOTENAI-AT BONNERS FERRY12-06-2021STAGE (FT)MMM
113HOPI1PEND OREILLE-PEND OREILLE LAKE NR HOPE12-06-2021LAKE ELEVATION (FT)MMM
114SJMI1ST JOE-AT ST MARIES12-06-2021STAGE (FT)MMM
115MILI1SNAKE-AT MILNER12-06-2021DISCHARGE (KAF)M54M